Station PWAW3 - Port Washington, WI Image indicating link to RSS feed of recent meteorological observations for station PWAW3


Conditions at PWAW3 as of
(1:40 pm CDT)
1840 GMT on 05/30/2024:
     

Click on the graph icon in the table below to see a time series plot of the last five days of that observation.

5-day plot - Wind Speed Wind Speed (WSPD): 0.0 kts
5-day plot - Wind Gust Wind Gust (GST): 2.9 kts
5-day plot - Atmospheric Pressure Atmospheric Pressure (PRES):30.29 in
5-day plot - Air Temperature Air Temperature (ATMP): 57.9 °F
5-day plot - Wind Speed at 10 Meters Wind Speed at 10 meters (WSPD10M): 0.0 kts
5-day plot - Wind Speed at 20 Meters Wind Speed at 20 meters (WSPD20M): 0.0 kts
5-day plot -  Wind Speed, Wind Gust and Atmospheric Pressure Combined plot of Wind Speed, Gust, and Air Pressure
Previous observations
TIME
(CDT)
5-day plot - Wind Direction
WDIR
 
5-day plot - Wind Speed
WSPD
kts
5-day plot - Wind Gust
GST
kts
5-day plot - Wave Height
WVHT
ft
5-day plot - Dominant Wave Period
DPD
sec
5-day plot - Average Wave Period
APD
sec
5-day plot - Mean Wave Direction
MWD
 
5-day plot - Atmospheric Pressure
PRES
in
5-day plot - Pressure Tendency
PTDY
in
5-day plot - Air Temperature
ATMP
°F
5-day plot - Water Temperature
WTMP
°F
5-day plot - Dew Point
DEWP
°F
5-day plot - Salinity
SAL
psu
5-day plot - Visibility
VIS
nmi
5-day plot - Tide (above MLLW)
TIDE
ft
2024-05-30 01:30 pmESE 1.9 2.9----30.28- 57.9-----
2024-05-30 01:20 pm- 0.0 1.9----30.29- 57.0-----
2024-05-30 01:10 pm- 0.0 1.9----30.29- 57.6-----
2024-05-30 01:00 pm- 0.0 2.9----30.30-0.01 57.6-----
2024-05-30 12:50 pm- 0.0 1.0----30.30- 56.7-----
2024-05-30 12:40 pm- 0.0 1.9----30.31- 57.2-----
2024-05-30 12:30 pm- 0.0 1.9----30.31- 57.0-----
2024-05-30 12:20 pm- 0.0 2.9----30.31- 56.7-----
2024-05-30 12:10 pm NE 2.9 4.1----30.31- 57.6-----
2024-05-30 12:00 pm NE 1.0 2.9----30.31-0.01 57.2-----
2024-05-30 11:50 amENE 1.9 4.1----30.31- 56.1-----
2024-05-30 11:40 am NE 2.9 4.1----30.31- 56.8-----
2024-05-30 11:30 am NE 2.9 4.1----30.31- 57.4-----
2024-05-30 11:20 am NE 1.0 4.1----30.31- 56.8-----
2024-05-30 11:10 am NE 1.9 4.1----30.31- 57.2-----
2024-05-30 11:00 am NE 2.9 4.1----30.31+0.00 57.9-----
2024-05-30 10:50 am NE 1.9 2.9----30.31- 57.7-----
2024-05-30 10:40 am NE 1.0 4.1----30.31- 57.9-----
2024-05-30 10:30 am NE 2.9 4.1----30.31- 57.7-----
2024-05-30 10:20 am NE 1.9 5.1----30.31- 56.1-----
2024-05-30 10:10 am NE 4.1 5.1----30.31- 56.5-----
2024-05-30 10:00 am NE 4.1 5.1----30.31+0.01 56.5-----
2024-05-30 09:50 am NE 2.9 5.1----30.32- 57.4-----
2024-05-30 09:40 am NE 4.1 6.0----30.32- 57.4-----
2024-05-30 09:30 am NE 4.1 6.0----30.31- 57.0-----
2024-05-30 09:20 am NE 5.1 7.0----30.32- 57.0-----
2024-05-30 09:10 amNNE 6.0 8.0----30.32- 56.5-----
2024-05-30 09:00 amNNE 6.0 8.0----30.32+0.02 56.5-----
2024-05-30 08:50 am NE 6.0 8.0----30.32- 56.5-----
2024-05-30 08:40 am NE 6.0 8.0----30.32- 56.7-----
2024-05-30 08:30 am NE 7.0 8.9----30.31- 56.1-----
2024-05-30 08:20 am NE 8.0 9.9----30.31- 56.3-----
2024-05-30 08:10 am NE 7.0 9.9----30.31- 56.1-----
2024-05-30 08:00 am NE 8.0 11.1----30.31- 56.1-----
2024-05-30 07:50 am NE 7.0 9.9----30.31- 56.1-----
2024-05-30 07:40 am NE 7.0 8.0----30.31- 57.0-----
2024-05-30 07:30 am NE 5.1 8.9----30.31- 57.0-----
2024-05-30 07:20 am NE 7.0 8.9----30.31- 57.4-----
2024-05-30 07:10 amNNE 4.1 6.0----30.31- 57.7-----
2024-05-30 07:00 amNNE 2.9 7.0----30.30- 55.9-----
2024-05-30 06:50 am- 0.0 6.0----30.30- 55.4-----
2024-05-30 06:40 am N 1.9 4.1----30.30- 54.5-----
2024-05-30 06:30 am- 0.0 1.9----30.30- 54.7-----
2024-05-30 06:20 am- 0.0 2.9----30.30- 53.4-----
2024-05-30 06:10 am- 0.0 2.9----30.30- 51.3-----
2024-05-30 06:00 am- 0.0 2.9----30.30- 48.7-----
2024-05-30 05:50 amWNW 1.0 4.1----30.30- 47.7-----
2024-05-30 05:40 amWNW 1.9 2.9----30.30- 46.2-----
2024-05-30 05:30 amWNW 1.9 2.9----30.29- 46.4-----
2024-05-30 05:20 amWNW 1.0 2.9----30.29- 46.0-----
2024-05-30 05:10 am W 1.9 2.9----30.28- 46.4-----
2024-05-30 05:00 amWNW 1.0 2.9----30.27+0.00 46.4-----
2024-05-30 04:50 am- 0.0 1.9----30.27- 46.0-----
2024-05-30 04:40 am- 0.0 1.9----30.27- 46.9-----
2024-05-30 04:30 am- 0.0 1.9----30.27- 46.8-----
2024-05-30 04:20 am- 0.0 2.9----30.27- 46.6-----
2024-05-30 04:10 am- 0.0 0.0----30.27- 47.7-----
2024-05-30 04:00 am- 0.0 2.9----30.27+0.01 49.5-----
2024-05-30 03:50 am- 0.0 4.1----30.27- 51.3-----
2024-05-30 03:40 am N 1.9 5.1----30.27- 51.1-----
2024-05-30 03:30 amNNW 1.9 6.0----30.27- 51.1-----
2024-05-30 03:20 amNNW 1.9 4.1----30.27- 50.9-----
2024-05-30 03:10 am NW 1.9 4.1----30.27- 50.7-----
2024-05-30 03:00 am NW 2.9 6.0----30.27+0.01 50.9-----
2024-05-30 02:50 am NW 2.9 6.0----30.27- 49.8-----
2024-05-30 02:40 am NW 1.0 4.1----30.27- 48.6-----
2024-05-30 02:30 am NW 1.9 5.1----30.27- 49.5-----
2024-05-30 02:20 am NW 2.9 6.0----30.27- 50.7-----
2024-05-30 02:10 amWNW 4.1 6.0----30.27- 51.4-----
2024-05-30 02:00 am NW 4.1 6.0----30.27+0.02 51.6-----
2024-05-30 01:50 am NW 2.9 6.0----30.26- 51.6-----
2024-05-30 01:40 am NW 2.9 5.1----30.26- 51.6-----
2024-05-30 01:30 am NW 4.1 5.1----30.26- 51.4-----
2024-05-30 01:20 am NW 4.1 5.1----30.26- 51.1-----
2024-05-30 01:10 amWNW 2.9 5.1----30.26- 51.1-----
2024-05-30 01:00 am NW 2.9 4.1----30.26+0.02 50.7-----
2024-05-30 12:50 amWNW 2.9 5.1----30.26- 50.7-----
2024-05-30 12:40 amWNW 2.9 6.0----30.26- 50.7-----
2024-05-30 12:30 amWNW 2.9 5.1----30.26- 49.8-----
2024-05-30 12:20 amWNW 1.9 2.9----30.26- 49.8-----
2024-05-30 12:10 am- 0.0 1.9----30.26- 49.8-----
2024-05-30 12:00 am- 0.0 1.9----30.26+0.03 50.0-----
2024-05-29 11:50 pm NW 1.0 2.9----30.26- 50.2-----
2024-05-29 11:40 pmWNW 1.0 1.9----30.26- 50.4-----
2024-05-29 11:30 pm- 0.0 4.1----30.25- 50.7-----
2024-05-29 11:20 pm- 0.0 2.9----30.25- 50.9-----
2024-05-29 11:10 pmWNW 1.9 4.1----30.25- 51.4-----
2024-05-29 11:00 pm NW 1.9 4.1----30.25+0.02 52.9-----
2024-05-29 10:50 pm NW 1.9 2.9----30.25- 52.7-----
2024-05-29 10:40 pm NW 1.9 2.9----30.25- 53.1-----
2024-05-29 10:30 pmWNW 1.0 4.1----30.25- 53.6-----
2024-05-29 10:20 pmWNW 2.9 5.1----30.25- 53.8-----
2024-05-29 10:10 pm NW 1.9 4.1----30.24- 53.8-----
2024-05-29 10:00 pmWNW 1.0 2.9----30.24+0.01 54.1-----
2024-05-29 09:50 pm- 0.0 2.9----30.24- 54.0-----
2024-05-29 09:40 pm NW 1.0 2.9----30.24- 54.3-----
2024-05-29 09:30 pm- 0.0 4.1----30.24- 54.7-----
2024-05-29 09:20 pm- 0.0 2.9----30.24- 54.9-----
2024-05-29 09:10 pmNNW 1.0 4.1----30.24- 54.7-----
2024-05-29 09:00 pm- 0.0 5.1----30.23-0.01 55.0-----
2024-05-29 08:50 pm- 0.0 5.1----30.23- 55.0-----
2024-05-29 08:40 pm- 0.0 4.1----30.23- 55.6-----
2024-05-29 08:30 pm N 4.1 8.9----30.23- 56.1-----
2024-05-29 08:20 pm N 1.9 5.1----30.23- 56.5-----
2024-05-29 08:10 pm- 0.0 5.1----30.23- 57.0-----
2024-05-29 08:00 pm- 0.0 5.1----30.23+0.00 57.7-----
2024-05-29 07:50 pm- 0.0 4.1----30.23- 58.6-----
2024-05-29 07:40 pm- 0.0 6.0----30.23- 59.4-----
2024-05-29 07:30 pmNNE 1.9 7.0----30.23- 59.2-----
2024-05-29 07:20 pmNNE 1.9 5.1----30.23- 58.3-----
2024-05-29 07:10 pm NE 1.9 6.0----30.23- 58.6-----
2024-05-29 07:00 pmNNE 5.1 8.0----30.23-0.01 58.3-----
2024-05-29 06:50 pm NE 4.1 8.0----30.23- 56.3-----
2024-05-29 06:40 pm NE 5.1 8.0----30.23- 56.8-----
2024-05-29 06:30 pm NE 6.0 9.9----30.23- 57.2-----
2024-05-29 06:20 pm NE 7.0 12.0----30.23- 57.0-----
2024-05-29 06:10 pmNNE 6.0 8.9----30.23- 57.2-----
2024-05-29 06:00 pmNNE 7.0 9.9----30.24-0.01 56.8-----
2024-05-29 05:50 pm NE 8.0 12.0----30.24- 56.5-----
2024-05-29 05:40 pm NE 8.9 12.0----30.23- 56.5-----
2024-05-29 05:30 pm NE 8.0 12.0----30.23- 56.8-----
2024-05-29 05:20 pmNNE 8.0 14.0----30.23- 56.3-----
2024-05-29 05:10 pm NE 11.1 15.9----30.23- 56.7-----
2024-05-29 05:00 pm NE 13.0 15.9----30.23-0.02 56.1-----
2024-05-29 04:50 pm NE 11.1 15.0----30.23- 56.3-----
2024-05-29 04:40 pm NE 11.1 13.0----30.23- 56.5-----
2024-05-29 04:30 pm NE 11.1 13.0----30.24- 57.0-----
2024-05-29 04:20 pm NE 8.9 12.0----30.24- 56.7-----
2024-05-29 04:10 pm NE 11.1 15.9----30.24- 56.7-----
2024-05-29 04:00 pm NE 12.0 15.9----30.24-0.02 56.7-----
2024-05-29 03:50 pm NE 11.1 17.1----30.24- 56.8-----
2024-05-29 03:40 pm NE 11.1 15.0----30.25- 56.3-----
2024-05-29 03:30 pm NE 12.0 15.0----30.25- 55.4-----
2024-05-29 03:20 pm NE 14.0 15.9----30.24- 55.2-----
2024-05-29 03:10 pm NE 9.9 14.0----30.25- 55.2-----
2024-05-29 03:00 pm NE 12.0 17.1----30.25-0.01 55.4-----
2024-05-29 02:50 pm NE 13.0 17.1----30.25- 55.0-----
2024-05-29 02:40 pm NE 11.1 15.9----30.25- 54.9-----
2024-05-29 02:30 pm NE 11.1 15.0----30.25- 54.7-----
2024-05-29 02:20 pm NE 13.0 15.9----30.25- 54.5-----
2024-05-29 02:10 pm NE 8.9 13.0----30.25- 54.9-----
2024-05-29 02:00 pm NE 9.9 15.0----30.25+0.00 55.0-----
2024-05-29 01:50 pm NE 9.9 12.0----30.26- 55.8-----